Biloxi, MS

6:28 AM CST on February 26, 2017 (GMT -0600)
Keesler Air Force Base

Weather History for KBIX - April, 2013

Change the Weather History Date:

Wednesday, April 10, 2013

  Actual Average Record
Temperature  
Mean Temperature 74 °F -  
Max Temperature 80 °F 75 °F 86 °F (1977)
Min Temperature 69 °F 56 °F 41 °F (2003)
Cooling Degree Days 9    
Growing Degree Days 24 (Base 50)    
Moisture  
Dew Point 69 °F    
Average Humidity 85    
Maximum Humidity 94    
Minimum Humidity 69    
Precipitation  
Precipitation 0.00 in - - ()
Sea Level Pressure  
Sea Level Pressure 29.96 in    
Wind  
Wind Speed 11 mph (SE)    
Max Wind Speed 17 mph    
Max Gust Speed 24 mph    
Visibility 10 miles    
Events      
Averages and records for this station are not official NWS values.
T = Trace of Precipitation, MM = Missing Value Source: NWS Daily Summary

Daily Weather History Graph

Daily Weather History Graph

Search for Another Location

Airport or City:

Trip Planner

Search our weather history database for the weather conditions in past years. The results will help you decide how hot, cold, wet, or windy it might be!

Date:

Astronomy

Apr. 10, 2013 Rise Set
Actual Time 6:33 AM CDT 7:20 PM CDT
Civil Twilight 6:09 AM CDT 7:44 PM CDT
Nautical Twilight 5:40 AM CDT 8:13 PM CDT
Astronomical Twilight 5:11 AM CDT 8:43 PM CDT
Moon 6:32 AM CDT (4/10) 7:51 PM CDT (4/10)
Length of Visible Light 13h 35m
Length of Day
12h 46m
New Moon, 0% of the Moon is Illuminated
Apr 10
New Moon
Apr 18
First Quarter
Apr 25
Full
May 2
Last Quarter
May 9
New

Hourly Weather History & Observations

Time (CDT) Temp. Dew Point Humidity Pressure Visibility Wind Dir Wind Speed Gust Speed Precip Events Conditions
12:08 AM 71.6 °F 68.0 °F 88% 30.02 in 10.0 mi ESE 11.5 mph - N/A   Scattered Clouds
12:28 AM 71.6 °F 68.0 °F 88% 30.01 in 10.0 mi ESE 10.4 mph 18.4 mph N/A   Mostly Cloudy
12:58 AM 70.9 °F 68.5 °F 92% 30.00 in 10.0 mi SE 10.4 mph 21.9 mph N/A   Mostly Cloudy
1:03 AM 71.6 °F 68.0 °F 88% 29.99 in 10.0 mi SE 13.8 mph 20.7 mph N/A   Mostly Cloudy
1:28 AM 69.8 °F 68.0 °F 94% 29.98 in 10.0 mi ESE 10.4 mph 19.6 mph N/A   Mostly Cloudy
1:33 AM 71.6 °F 68.0 °F 88% 29.98 in 10.0 mi SE 10.4 mph 19.6 mph N/A   Scattered Clouds
1:58 AM 70.7 °F 68.5 °F 93% 29.98 in 10.0 mi ESE 9.2 mph - N/A   Partly Cloudy
2:58 AM 70.7 °F 68.4 °F 92% 29.96 in 10.0 mi SE 11.5 mph - N/A   Clear
3:58 AM 70.3 °F 68.0 °F 92% 29.96 in 10.0 mi SSE 8.1 mph - N/A   Clear
4:58 AM 70.3 °F 68.0 °F 92% 29.95 in 10.0 mi SE 10.4 mph - N/A   Partly Cloudy
5:58 AM 70.3 °F 68.0 °F 92% 29.96 in 10.0 mi SE 6.9 mph - N/A   Scattered Clouds
6:13 AM 69.8 °F 68.0 °F 94% 29.95 in 10.0 mi SE 9.2 mph - N/A   Mostly Cloudy
6:18 AM 69.8 °F 68.0 °F 94% 29.95 in 10.0 mi SE 8.1 mph - N/A   Mostly Cloudy
6:58 AM 70.3 °F 68.0 °F 92% 29.97 in 10.0 mi ESE 8.1 mph - N/A   Mostly Cloudy
7:08 AM 71.6 °F 68.0 °F 88% 29.95 in 10.0 mi ESE 10.4 mph - N/A   Scattered Clouds
7:58 AM 72.0 °F 68.4 °F 88% 29.97 in 10.0 mi ESE 10.4 mph - N/A   Clear
8:58 AM 74.3 °F 68.5 °F 82% 29.99 in 10.0 mi SE 11.5 mph - N/A   Scattered Clouds
9:03 AM 75.2 °F 68.0 °F 78% 29.98 in 10.0 mi SE 12.7 mph - N/A   Mostly Cloudy
9:48 AM 75.2 °F 68.0 °F 78% 29.99 in 10.0 mi SE 15.0 mph 20.7 mph N/A   Scattered Clouds
9:58 AM 75.4 °F 68.9 °F 80% 30.00 in 10.0 mi SE 13.8 mph 23.0 mph N/A   Scattered Clouds
10:08 AM 75.2 °F 69.8 °F 83% 30.00 in 10.0 mi SSE 16.1 mph 20.7 mph N/A   Mostly Cloudy
10:58 AM 77.5 °F 69.4 °F 76% 30.01 in 10.0 mi SE 10.4 mph 19.6 mph N/A   Mostly Cloudy
11:08 AM 78.8 °F 69.8 °F 74% 30.00 in 10.0 mi SSE 16.1 mph 21.9 mph N/A   Scattered Clouds
11:58 AM 77.9 °F 69.4 °F 75% 30.01 in 10.0 mi SSE 15.0 mph 24.2 mph N/A   Partly Cloudy
12:33 PM 78.8 °F 69.8 °F 74% 30.00 in 10.0 mi SE 11.5 mph - N/A   Mostly Cloudy
12:58 PM 77.9 °F 68.9 °F 74% 30.01 in 10.0 mi SSE 12.7 mph 19.6 mph N/A   Overcast
1:58 PM 79.0 °F 68.7 °F 71% 29.99 in 10.0 mi SE 17.3 mph 23.0 mph N/A   Scattered Clouds
2:58 PM 79.7 °F 68.9 °F 69% 29.98 in 10.0 mi SE 13.8 mph 20.7 mph N/A   Clear
3:58 PM 79.2 °F 69.1 °F 71% 29.94 in 10.0 mi SE 13.8 mph 21.9 mph N/A   Clear
4:58 PM 78.1 °F 69.4 °F 75% 29.93 in 10.0 mi ESE 12.7 mph 20.7 mph N/A   Clear
5:48 PM 75.2 °F 69.8 °F 83% 29.91 in 10.0 mi SE 16.1 mph 20.7 mph N/A   Mostly Cloudy
5:58 PM 75.4 °F 69.6 °F 82% 29.92 in 10.0 mi SE 13.8 mph 19.6 mph N/A   Mostly Cloudy
6:58 PM 74.1 °F 69.6 °F 86% 29.91 in 10.0 mi ESE 11.5 mph 17.3 mph N/A   Overcast
7:23 PM 73.4 °F 69.8 °F 88% 29.90 in 10.0 mi SE 11.5 mph - N/A   Overcast
7:28 PM 73.4 °F 69.8 °F 88% 29.90 in 10.0 mi SE 13.8 mph - N/A   Overcast
7:58 PM 73.2 °F 69.6 °F 88% 29.91 in 10.0 mi ESE 11.5 mph 18.4 mph N/A   Overcast
8:03 PM 73.4 °F 69.8 °F 88% 29.90 in 10.0 mi ESE 8.1 mph 18.4 mph N/A   Overcast
8:58 PM 73.0 °F 69.6 °F 89% 29.91 in 10.0 mi SE 9.2 mph 19.6 mph N/A   Overcast
9:58 PM 72.7 °F 69.6 °F 90% 29.91 in 10.0 mi SE 9.2 mph 17.3 mph N/A   Overcast
10:58 PM 72.7 °F 69.8 °F 91% 29.90 in 10.0 mi SE 10.4 mph - N/A   Overcast
11:23 PM 73.4 °F 69.8 °F 88% 29.88 in 10.0 mi SSE 9.2 mph - N/A   Overcast
11:58 PM 72.1 °F 69.8 °F 92% 29.89 in 10.0 mi SSE 9.2 mph - N/A   Overcast